[[{"header":{"parameterUnit":"m.s-1","parameterCategory":1,"la1":30.2991,"la2":30.254,"lo1":-89.0895,"lo2":-89.0444,"dy":0.0017,"dx":0.0017,"nx":28,"ny":28,"refTime":"2025-06-13T21:00:00:Z","depth":0,"parameterNumber":2,"parameterNumberName":"U-component_of_WINDS"},"data":[0,0,0,0,0,0,0,0,0,0,0,0,0,0,0,0,0,0,0,0,0,0,0,0,0,0,0,0,0,0,0,0,0,0,0,0,0,0,0,0,0,0,0,0,0,0,0,0,0,0,0,0,0,0,0,0,0,0,1.578,1.5781,0,1.5851,1.5852,1.5852,1.5842,1.5841,1.5839,1.5838,1.591,1.5913,1.5916,0,0,0,0,0,0,0,0,0,0,0,0,0,1.5634,1.5637,1.578,1.5781,1.5782,1.5851,1.5852,1.5853,1.5842,1.5841,1.5839,1.5838,1.5909,1.5913,1.5916,0,0,0,0,0,0,0,0,0,0,0,0,0,1.57,1.5638,1.578,1.5785,1.5786,1.585,1.5852,1.5853,1.5842,1.5841,1.5839,1.5837,1.5908,1.5913,1.5917,1.5981,0,0,1.5931,1.5933,0,0,0,0,0,0,0,0,1.5697,1.5706,1.5783,1.5785,1.5786,1.5836,1.5827,1.5896,1.5843,1.5821,1.5838,1.5836,1.5887,1.5893,1.591,1.5984,1.5987,1.5931,1.5934,1.5936,1.5937,0,0,0,0,0,0,0,1.5692,1.5703,1.5808,1.5784,1.5786,1.5783,1.579,1.584,1.5863,1.5823,1.5822,1.5831,1.5887,1.5906,1.5912,1.5988,1.5931,1.5935,1.5938,1.594,1.6117,1.6119,0,0,0,0,0,0,1.5686,1.5699,1.5806,1.581,1.5736,1.5787,1.5795,1.5821,1.5862,1.5867,1.5832,1.583,1.5899,1.5907,1.5914,1.599,1.5936,1.594,1.5943,1.6115,1.6117,1.6119,0,0,0,0,0,0,1.5683,1.5696,1.5803,1.5754,1.5768,1.5791,1.5821,1.5824,1.5842,1.587,1.5874,1.5847,1.5898,1.5908,1.5964,1.5993,1.5942,1.5946,1.6112,1.6115,1.6118,1.6144,0,0,0,0,0,0,1.5679,1.5695,1.572,1.5755,1.577,1.5852,1.5823,1.5826,1.585,1.5848,1.5885,1.5889,1.5897,1.5957,1.5969,1.5998,1.595,1.611,1.6114,1.6117,1.6141,1.6147,1.6153,0,0,0,0,0,1.5674,1.5724,1.5721,1.5734,1.5802,1.5854,1.5862,1.5871,1.5853,1.5878,1.5895,1.5888,1.5988,1.5963,1.5976,1.6007,1.6108,1.6113,1.6117,1.6138,1.6146,1.6153,0,0,0,0,0,0,1.5692,1.5729,1.5726,1.579,1.5818,1.5852,1.5883,1.588,1.5914,1.5911,1.592,1.5929,1.5985,1.6002,1.5973,1.607,1.6045,1.6053,1.6057,1.6065,1.6071,1.6065,1.5954,0,0,0,0,0,1.5703,1.5743,1.5773,1.5826,1.5841,1.586,1.5882,1.5887,1.5917,1.5929,1.595,1.598,1.6018,1.6043,1.6079,1.6143,1.615,1.6171,1.6177,1.6182,1.6188,1.6222,1.6231,1.6134,1.6134,1.6134,0,0,1.5727,1.5753,1.5777,1.583,1.5853,1.5893,1.587,1.5913,1.5942,1.5935,1.5989,1.6006,1.6039,1.6099,1.6127,1.6115,1.6216,1.6188,1.6192,1.6195,1.6227,1.6236,1.6244,1.6137,1.6136,1.6136,0,0,1.5791,1.5815,1.5861,1.5884,1.5919,1.5931,1.5942,1.5976,1.5986,1.6041,1.6036,1.6071,1.6137,1.616,1.618,1.6252,1.6246,1.6264,1.6296,1.6329,1.6336,1.6343,1.6367,1.6376,1.6269,1.6269,1.627,0,1.5816,1.5876,1.5885,1.5928,1.5951,1.5947,1.5993,1.6015,1.606,1.6076,1.6062,1.6144,1.6166,1.623,1.6248,1.6265,1.6277,1.6259,1.6335,1.6341,1.6348,1.6371,1.638,1.6271,1.6271,1.6271,1.6271,0,1.5904,1.5946,1.5979,1.6022,1.6049,1.6093,1.6108,1.6134,1.6136,1.6149,1.6204,1.6231,1.6272,1.6288,1.629,1.6352,1.6344,1.6332,1.6307,1.6359,1.638,1.6389,1.6274,1.6273,1.6273,1.6272,0,0,1.5981,1.6028,1.604,1.6058,1.6096,1.6128,1.6172,1.6212,1.6234,1.6265,1.6301,1.6357,1.6346,1.6369,1.6374,1.6403,1.6456,1.6388,1.6389,1.6398,1.6524,1.6531,1.6541,1.6453,1.6454,1.6456,1.6521,0,1.6046,1.6124,1.6133,1.6202,1.6239,1.6236,1.6274,1.6301,1.6314,1.6347,1.6362,1.6401,1.6385,1.6398,1.6427,1.6443,1.6481,1.6439,1.6485,1.6487,1.6475,1.6553,1.6561,1.6621,1.6529,1.6531,1.6532,0,1.6133,1.6167,1.6239,1.6271,1.6287,1.6321,1.6357,1.639,1.642,1.6428,1.6453,1.6454,1.6499,1.6473,1.6533,1.6505,1.6524,1.6535,1.6538,1.6541,1.6511,1.6557,1.664,1.6649,1.6546,1.6545,1.6544,0,1.618,1.6243,1.6294,1.631,1.6349,1.6373,1.639,1.6418,1.6441,1.6474,1.6488,1.6526,1.6546,1.6574,1.6585,1.6565,1.6644,1.6619,1.6651,1.665,1.6666,1.6665,1.6753,1.6682,1.6681,1.6681,1.6681,0,1.6251,1.6295,1.6315,1.6346,1.6395,1.6405,1.6453,1.6469,1.6494,1.6528,1.6527,1.6559,1.6572,1.6605,1.6614,1.6662,1.6671,1.6678,1.6679,1.6677,1.6676,1.6689,1.6684,1.6684,1.6683,1.6683,1.6682,0,1.6311,1.6326,1.6381,1.6413,1.6422,1.6456,1.6483,1.6513,1.6526,1.6569,1.6579,1.6599,1.6639,1.6652,1.67,1.6706,1.6761,1.676,1.6751,1.6751,1.678,1.6777,1.6878,1.6891,1.6813,1.6814,1.6814,0,1.6355,1.6388,1.6424,1.6446,1.6464,1.6501,1.6524,1.6535,1.6559,1.6596,1.6621,1.666,1.6691,1.6754,1.6772,1.6809,1.6807,1.684,1.6813,1.6809,1.6806,1.6803,1.6806,1.6845,1.6846,1.6847,1.6847,0,1.643,1.6436,1.647,1.6506,1.6534,1.6564,1.6592,1.661,1.6625,1.6652,1.6692,1.6717,1.6765,1.6803,1.684,1.6857,1.6854,1.6856,1.6865,1.6862,1.6854,1.6857,1.6763,1.6853,1.6852,1.6852,1.6852,1.6851,1.6482,1.6511,1.654,1.6578,1.66,1.6627,1.6656,1.6672,1.6706,1.6746,1.675,1.6793,1.6821,1.687,1.6889,1.6922,1.6913,1.6926,1.6929,1.6932,1.6933,1.685,1.6929,1.6929,1.6929,1.6929,1.6929,0,1.6556,1.6574,1.6609,1.6648,1.6678,1.6673,1.6704,1.6728,1.6766,1.6793,1.6824,1.6869,1.6906,1.6927,1.6964,1.6986,1.6986,1.6995,1.6993,1.6997,1.694,1.6928,1.6995,1.6995,1.6995,1.6995,1.6995,1.6995,1.6598,1.6646,1.6655,1.6715,1.6733,1.6775,1.6792,1.6816,1.6838,1.6888,1.6919,1.6933,1.6957,1.6995,1.7028,1.7034,1.7047,1.7057,1.7061,1.7008,1.7001,1.6994,1.6983,1.706,1.706,1.7114,1.7115,1.7115]},{"header":{"parameterUnit":"m.s-1","parameterCategory":1,"la1":30.2991,"la2":30.254,"lo1":-89.0895,"lo2":-89.0444,"dy":0.0017,"dx":0.0017,"nx":28,"ny":28,"refTime":"2025-06-13T21:00:00:Z","depth":0,"parameterNumber":3,"parameterNumberName":"V-component_of_WINDS"},"data":[0,0,0,0,0,0,0,0,0,0,0,0,0,0,0,0,0,0,0,0,0,0,0,0,0,0,0,0,0,0,0,0,0,0,0,0,0,0,0,0,0,0,0,0,0,0,0,0,0,0,0,0,0,0,0,0,0,0,2.9197,2.9198,0,2.9272,2.9273,2.9274,2.9257,2.9255,2.9254,2.9253,2.9326,2.9329,2.9332,0,0,0,0,0,0,0,0,0,0,0,0,0,2.9034,2.9038,2.9197,2.9198,2.9199,2.9272,2.9273,2.9274,2.9257,2.9255,2.9254,2.9252,2.9325,2.9328,2.9332,0,0,0,0,0,0,0,0,0,0,0,0,0,2.9107,2.9039,2.9197,2.9199,2.92,2.9272,2.9273,2.9274,2.9257,2.9255,2.9253,2.9251,2.9323,2.9328,2.9333,2.9405,0,0,2.9348,2.935,0,0,0,0,0,0,0,0,2.9103,2.9113,2.9198,2.9199,2.9201,2.9253,2.9242,2.9318,2.9258,2.9236,2.9253,2.925,2.9303,2.9309,2.9328,2.9409,2.9412,2.9348,2.9351,2.9353,2.9355,0,0,0,0,0,0,0,2.9098,2.9109,2.9227,2.9199,2.9201,2.9195,2.9203,2.9257,2.928,2.9237,2.9236,2.9246,2.9303,2.9323,2.933,2.9413,2.9348,2.9353,2.9356,2.9357,2.9555,2.9557,0,0,0,0,0,0,2.9092,2.9105,2.9224,2.9229,2.9146,2.92,2.9209,2.9238,2.9279,2.9284,2.9247,2.9245,2.9316,2.9324,2.9332,2.9418,2.9353,2.9358,2.9361,2.9552,2.9555,2.9558,0,0,0,0,0,0,2.9089,2.9103,2.9221,2.9167,2.9181,2.9205,2.9238,2.9241,2.9261,2.9287,2.9291,2.9264,2.9315,2.9325,2.9387,2.9421,2.936,2.9365,2.955,2.9553,2.9556,2.9592,0,0,0,0,0,0,2.9084,2.9102,2.9131,2.9168,2.9184,2.9277,2.924,2.9244,2.927,2.9267,2.9304,2.9308,2.9314,2.938,2.9392,2.9426,2.9368,2.9547,2.9551,2.9555,2.9588,2.9597,2.9604,0,0,0,0,0,2.9078,2.9138,2.9133,2.9147,2.9222,2.9279,2.9288,2.9295,2.9273,2.9301,2.9317,2.9306,2.9415,2.9386,2.94,2.9436,2.9544,2.955,2.9555,2.9585,2.9595,2.9604,0,0,0,0,0,0,2.9104,2.9143,2.9137,2.9211,2.9242,2.9276,2.9312,2.9306,2.9343,2.9338,2.9344,2.9353,2.9415,2.9432,2.9399,2.9507,2.9476,2.9484,2.9495,2.9504,2.9512,2.9507,2.9372,0,0,0,0,0,2.9118,2.9162,2.9193,2.9255,2.9271,2.9289,2.9314,2.9316,2.9348,2.9361,2.9382,2.9412,2.9453,2.9479,2.9518,2.959,2.9597,2.9622,2.963,2.9636,2.9643,2.968,2.9691,2.9575,2.9574,2.9574,0,0,2.9147,2.9174,2.9202,2.9261,2.9285,2.9329,2.93,2.9348,2.9381,2.9368,2.9428,2.9444,2.9478,2.9544,2.9575,2.956,2.9676,2.9642,2.9647,2.9651,2.9687,2.9698,2.9707,2.9578,2.9577,2.9577,0,0,2.9224,2.9249,2.9303,2.9328,2.9365,2.9376,2.9389,2.9424,2.9434,2.9495,2.9485,2.9523,2.9593,2.9617,2.9639,2.9722,2.9713,2.9735,2.9775,2.9812,2.9821,2.9829,2.9858,2.9868,2.9741,2.9741,2.9742,0,2.9256,2.9324,2.9331,2.938,2.9405,2.9396,2.9449,2.9472,2.952,2.9537,2.952,2.9607,2.9629,2.9701,2.9721,2.9739,2.9752,2.9731,2.9819,2.9828,2.9835,2.9863,2.9874,2.9744,2.9744,2.9743,2.9743,0,2.936,2.9407,2.9446,2.9493,2.9522,2.9573,2.9586,2.9615,2.9614,2.9627,2.9687,2.9713,2.9756,2.9773,2.9773,2.9844,2.9834,2.9818,2.9787,2.9849,2.9874,2.9885,2.9747,2.9746,2.9746,2.9745,0,0,2.9456,2.9505,2.9519,2.954,2.9579,2.9615,2.9664,2.9708,2.9731,2.9764,2.9804,2.9863,2.9849,2.9873,2.9875,2.9907,2.997,2.9887,2.9888,2.9901,3.0048,3.006,3.0072,2.9964,2.9966,2.9967,3.0045,0,2.9536,2.9625,2.9631,2.9711,2.9753,2.9744,2.9786,2.9814,2.9827,2.9863,2.9876,2.9917,2.9895,2.991,2.9941,2.9956,2.9999,2.995,3.0,3.0002,2.9992,3.0086,3.0098,3.0171,3.0055,3.0057,3.0058,0,2.9641,2.9677,2.9761,2.9793,2.9811,2.985,2.9889,2.9924,2.9955,2.9961,2.9988,2.9985,3.0033,3.0,3.0066,3.0033,3.0053,3.0063,3.0066,3.0071,3.0034,3.0092,3.0194,3.0205,3.0074,3.0073,3.0072,0,2.9701,2.9771,2.983,2.9848,2.9887,2.9914,2.9931,2.996,2.9985,3.0018,3.0034,3.0073,3.0094,3.0122,3.0129,3.0105,3.0195,3.0163,3.02,3.02,3.022,3.0218,3.0326,3.0233,3.0233,3.0233,3.0233,0,2.979,2.9841,2.9857,2.9894,2.995,2.9956,3.0011,3.0026,3.0052,3.0089,3.0083,3.0118,3.0125,3.0161,3.0166,3.0219,3.0228,3.0234,3.0235,3.0235,3.0234,3.0248,3.0243,3.0236,3.0235,3.0235,3.0234,0,2.9867,2.988,2.9944,2.9975,2.9984,3.0024,3.005,3.0084,3.0095,3.0142,3.0154,3.0171,3.0212,3.0222,3.0271,3.0275,3.0337,3.0333,3.0328,3.0327,3.0364,3.036,3.0484,3.05,3.0398,3.0399,3.0399,0,2.9923,2.9962,2.9998,3.0023,3.0042,3.0082,3.0108,3.0114,3.0141,3.0177,3.0206,3.0247,3.028,3.0347,3.0363,3.04,3.0396,3.0437,3.0402,3.04,3.0396,3.0394,3.0397,3.0444,3.0445,3.0446,3.0447,0,3.0019,3.0023,3.0061,3.0101,3.0132,3.0163,3.0193,3.0213,3.0223,3.0253,3.0296,3.0322,3.0372,3.0412,3.0449,3.0465,3.0457,3.0457,3.0468,3.0468,3.0463,3.0465,3.0345,3.0455,3.0454,3.0453,3.0453,3.0452,3.0087,3.0121,3.0151,3.0193,3.0216,3.0243,3.0276,3.0291,3.0328,3.037,3.0371,3.0417,3.0444,3.0494,3.0511,3.0546,3.0534,3.0549,3.0553,3.0557,3.056,3.0457,3.0553,3.0553,3.0553,3.0553,3.0552,0,3.0183,3.0201,3.024,3.0282,3.0314,3.0304,3.0336,3.0363,3.0405,3.0431,3.0464,3.0512,3.0551,3.0569,3.0607,3.0631,3.0628,3.0641,3.0639,3.0642,3.0569,3.0556,3.0642,3.0642,3.0642,3.0642,3.0642,3.0642,3.0236,3.0293,3.03,3.0367,3.0385,3.0432,3.0451,3.0475,3.0496,3.0551,3.0583,3.0595,3.0618,3.0657,3.0691,3.0695,3.0709,3.0723,3.0725,3.0657,3.0648,3.0639,3.0627,3.0726,3.0726,3.0795,3.0796,3.0796]}]]